Simultaneous Nadir Overpasses (SNOs) Predictions

Prediction of SNOs between AURA and NPP Satellite Orbit:

Table of predicted SNOs for the next 14.0 days since TLE Epoch: 5/22/2020
Index Date (AURA) Time (AURA) Lat,Lon (AURA) SZA (AURA ) Date (NPP) Time (NPP) Lat,Lon (NPP) SZA (NPP ) Distance(km) Time Diff (sec)
1 05/24/2020 19:08:46 79.09, 146.98 72.25 05/24/2020 19:07:32 79.12, 146.99 72.29 3.53 74
2 05/24/2020 19:58:03 -79.49, -42.79 108.34 05/24/2020 19:58:07 -79.48, -42.92 108.32 2.73 4
3 05/27/2020 11:25:07 79.38, -95.29 71.40 05/27/2020 11:24:19 79.38, -95.24 71.42 1.07 48
4 05/27/2020 12:14:27 -79.66, 74.28 109.02 05/27/2020 12:14:56 -79.67, 74.42 109.07 3.12 29
5 05/30/2020 03:41:33 79.47, 21.19 70.88 05/30/2020 03:41:11 79.47, 21.24 70.88 1.06 22
6 05/30/2020 04:30:53 -79.74,-169.20 109.55 05/30/2020 04:31:48 -79.75,-169.06 109.61 2.99 55
7 06/01/2020 19:08:41 -79.22, -32.20 109.11 06/01/2020 19:07:28 -79.22, -32.30 109.03 2.34 73
8 06/01/2020 19:57:58 79.55, 137.65 70.41 06/01/2020 19:58:02 79.56, 137.72 70.39 1.48 4
9 06/04/2020 11:25:06 -79.34, 84.48 109.58 06/04/2020 11:24:19 -79.34, 84.40 109.53 1.70 47




NCC Satellite Simultaneous Nadir Overpasses (SNOs) Prediction Service
